Weather in Yalkhoy-Mokhk

Russia / Chechen Republic     43°06′24″N   46°11′20″E
temp.,
°C
wind,
m/s
gust,
m/s
humid.,
%
clouds,
%
prec.,
mm/h
press.,
hPa
HPBL,
m
23 september, thu
thu2300:00+12n22100100 0.9 1011206
03:00+11wnw1299100 7.1 1012225
06:00+11nw1198100 1.5 1012182
09:00+11n229599 1.9 1011312
12:00+13nnw118999 0.1 1010439
15:00+12nne2397100 0.5 1010369
18:00+11nne1299100 0.6 1010184
21:00+11nw22100100 1.8 1010174
24 september, fri
fri2400:00+11n12100100 3.6 1009151
03:00+10nne1199100 4.4 1008122
06:00+10nw2299100 0.6 1009204
09:00+9wnw2598100 3.9 1011404
12:00+9wnw1597100 1.4 1013431
15:00+9wnw1396100 2.1 1013409
18:00+9ssw2394100 3.3 1016200
21:00+9ssw128992 4.6 101638
25 september, sat
sat2500:00+7sw119484 0.0 101626
03:00+8ese119197 0.1 101536
06:00+8ne119082 0.0 101440
09:00+12ne227415 0.0 1012615
12:00+16n325697 0.0 1010984
15:00+15wnw226330 0.0 1011779
18:00+11wsw238314 0.0 101558
21:00+8wnw2796100 0.9 1020610
26 september, sun
sun2600:00+7sw1395100 2.2 1021210
03:00+8ssw2489100 2.8 1021203
06:00+8sw248997 0.4 1022206
09:00+9w148166 0.5 1022375
12:00+12nw226664 0.0 1021922
15:00+13wnw125921 0.0 10201021
18:00+9se11754 0.0 102011
21:00+8s21770 0.0 101915
27 september, mon
mon2700:00+9s337363 0.0 101961
03:00+11s346789 0.0 101768
06:00+11ssw336780 0.0 101756
09:00+14w246295 0.0 1017613
12:00+13n116883 0.0 1017454
15:00+13nnw3475100 0.1 1016741
18:00+10w1195100 1.1 101885
21:00+10nnw1196100 2.3 1019106